This is the latest recevied weather packets stored in our database for station/object ZS1DFR-1. If no packets are shown the sender has not sent any weather packets the latest 1 day(s).
| Time | Temp. | Humidity | Pressure | Rain* | Wind** | Luminosity | Snow |
|---|---|---|---|---|---|---|---|
| 1778120616 | 13.89° C | 93% | 1019 hPa | 0 mm | - | - | - |
| 1778119716 | 13.89° C | 93% | 1019 hPa | 0 mm | - | - | - |
| 1778118816 | 14.44° C | 92% | 1019.2 hPa | 0 mm | - | - | - |
| 1778117916 | 14.44° C | 92% | 1019.2 hPa | 0 mm | - | - | - |
| 1778117016 | 14.44° C | 92% | 1019.2 hPa | 0 mm | - | - | - |
| 1778116116 | 14.44° C | 92% | 1019.2 hPa | 0 mm | - | - | - |
| 1778115216 | 14.44° C | 91% | 1019.3 hPa | 0 mm | - | - | - |
| 1778114316 | 14.44° C | 91% | 1019.3 hPa | 0 mm | - | - | - |
| 1778113416 | 14.44° C | 90% | 1019.3 hPa | 0 mm | - | - | - |
| 1778112516 | 14.44° C | 90% | 1019.3 hPa | 0 mm | - | - | - |
| 1778111616 | 15° C | 90% | 1019.2 hPa | 0 mm | - | - | - |
| 1778110716 | 15° C | 90% | 1019.2 hPa | 0 mm | - | - | - |
| 1778109816 | 15° C | 88% | 1019.2 hPa | 0 mm | - | - | - |
| 1778108916 | 15° C | 88% | 1019.2 hPa | 0 mm | - | - | - |
| 1778107116 | 15° C | 82% | 1019.2 hPa | 0 mm | - | - | - |
| 1778106216 | 15° C | 83% | 1019.1 hPa | 0 mm | - | - | - |
| 1778105316 | 15° C | 83% | 1019.1 hPa | 0 mm | - | - | - |
| 1778104416 | 15° C | 86% | 1019 hPa | 0 mm | - | - | - |
| 1778103516 | 15° C | 86% | 1019 hPa | 0 mm | - | - | - |
| 1778102616 | 15° C | 86% | 1019.3 hPa | 0 mm | - | - | - |
| 1778101716 | 15° C | 86% | 1019.3 hPa | 0 mm | - | - | - |
| 1778100816 | 15.56° C | 83% | 1018.9 hPa | 0 mm | - | - | - |
| 1778099916 | 15.56° C | 83% | 1018.9 hPa | 0 mm | - | - | - |
| 1778099016 | 15.56° C | 81% | 1019 hPa | 0 mm | - | - | - |
| 1778098116 | 15.56° C | 81% | 1019 hPa | 0 mm | - | - | - |
* Rain latest hour (hover to see other rain measurements)
** Current wind speed in m/s (hover to see current wind gust speed)